Terug naar catalogus

STARLINK-31590

ActiefCommunicatieVLEO
NORAD 59198·PAYLOAD·🇺🇸 United States

Gelanceerd Mar 10, 2024 vanaf Cape Canaveral Space Force Station

Loading…

Volgende Passages (komende 24 uur)

TLE

VersSource: CelesTrak SupGP

Epoch: Sep 14, 2026, 20:40 UTC

1 59198C 24045W   26257.86159722 -.00014021  00000+0 -50791-3 0  2570
2 59198  43.0024 104.5401 0001330 269.0362 277.3173 15.27581741    19

Volg STARLINK-31590 in realtime met AllMySat

Download on the App Store